Location: Unspecified
(0.0000°N, 0.0000°E)
Time: 00:44:03
(UTC+00:00)

deb Explorer IX - All Passes

Search period start: 25 April 2014 00:00
Search period end: 05 May 2014 00:00
Orbit: 551 x 1233 km, 38.8° (Epoch: 23 April)

Date Brightness Start Highest point End Pass type
(mag) Time Alt. Az. Time Alt. Az. Time Alt. Az.
25 Apr - 00:28:01 10° SW 00:33:38 90° SE 00:38:17 10° NE night (unlit)
25 Apr - 11:30:08 10° NNW 11:35:50 44° NE 11:42:37 10° ESE daylight
25 Apr - 13:18:39 10° WNW 13:24:46 37° SW 13:31:45 10° SSE daylight
25 Apr - 22:39:09 10° SSW 22:43:42 21° SE 22:47:41 10° E night (unlit)
26 Apr - 00:26:56 10° WSW 00:32:30 59° NW 00:37:07 10° NE night (unlit)
26 Apr - 11:28:47 10° NW 11:34:37 62° NE 11:41:40 10° ESE daylight
26 Apr - 13:18:11 10° W 13:23:43 27° SW 13:29:57 10° SSE daylight
26 Apr - 22:37:12 10° SSW 22:42:44 30° SE 22:47:25 10° E night (unlit)
27 Apr - 00:26:02 10° WSW 00:31:19 38° NW 00:35:46 10° NNE night (unlit)
27 Apr - 09:42:27 10° NNE 09:45:03 13° NE 09:47:50 10° ENE daylight
27 Apr - 11:27:35 10° NW 11:33:25 87° NE 11:40:32 10° SE daylight
27 Apr - 13:18:04 10° W 13:22:44 20° SW 13:27:52 10° S daylight
27 Apr - 22:35:30 10° SSW 22:41:42 44° SE 22:46:49 10° ENE night (unlit)
28 Apr - 00:25:24 10° W 00:30:06 26° NW 00:34:10 10° NNE night (unlit)
28 Apr - 09:40:05 10° N 09:43:51 19° NE 09:48:06 10° E daylight
28 Apr - 11:26:32 10° WNW 11:32:15 66° SW 11:39:12 10° SE daylight
28 Apr - 13:18:31 10° WSW 13:21:48 14° SSW 13:25:18 10° S daylight
28 Apr - 20:48:10 10° S 20:51:05 13° SSE 20:53:50 10° ESE night (unlit)
28 Apr - 22:34:00 10° SW 22:40:35 65° SE 22:45:58 10° ENE night (unlit)
29 Apr - 00:25:07 10° W 00:28:53 18° NW 00:32:15 10° N night (unlit)
29 Apr - 09:38:13 10° NNW 09:42:37 28° NE 09:47:44 10° E daylight
29 Apr - 11:25:39 10° WNW 11:31:07 46° SW 11:37:41 10° SSE daylight
29 Apr - 20:45:25 10° S 20:50:09 19° SE 20:54:26 10° ESE visible
29 Apr - 22:32:39 10° SW 22:39:24 87° NW 22:44:54 10° NE night (unlit)
30 Apr - 00:25:36 10° WNW 00:27:41 12° NW 00:29:39 10° NNW night (unlit)
30 Apr - 09:36:37 10° NNW 09:41:21 40° NE 09:47:02 10° ESE daylight
30 Apr - 11:24:59 10° W 11:30:01 32° SW 11:35:58 10° SSE daylight
30 Apr - 20:43:15 10° SSW 20:49:08 26° SE 20:54:19 10° E visible
30 Apr - 22:31:28 10° WSW 22:38:10 61° NW 22:43:39 10° NE night (unlit)
01 May - 09:35:12 10° NW 09:40:06 60° NE 09:46:03 10° ESE daylight
01 May - 11:24:36 10° W 11:28:59 22° SW 11:34:00 10° SSE daylight
01 May - 20:41:21 10° SSW 20:48:03 36° SE 20:53:49 10° ENE visible
01 May - 22:30:28 10° WSW 22:36:52 43° NW 22:42:14 10° NNE night (unlit)
02 May - 07:50:31 10° NE 07:50:43 10° NE 07:50:56 10° NE daylight
02 May - 09:33:58 10° NW 09:38:52 90° NE 09:44:52 10° SE daylight
02 May - 11:24:40 10° WSW 11:27:59 15° SSW 11:31:37 10° S daylight
02 May - 18:55:03 10° SSE 18:57:02 11° SSE 18:58:58 10° SE visible
02 May - 20:39:38 10° SW 20:46:53 50° SE 20:53:03 10° ENE visible
02 May - 22:29:41 10° WSW 22:35:34 30° NW 22:40:36 10° NNE night (unlit)
03 May - 07:46:46 10° N 07:49:30 16° NE 07:52:28 10° E daylight
03 May - 09:32:53 10° WNW 09:37:40 60° SW 09:43:28 10° SE daylight
03 May - 11:26:41 10° SW 11:27:01 10° SSW 11:27:22 10° SSW daylight
03 May - 18:51:38 10° S 18:56:03 16° SE 19:00:14 10° ESE visible
03 May - 20:38:05 10° SW 20:45:39 70° SE 20:52:03 10° ENE visible
03 May - 22:29:11 10° W 22:34:15 22° NW 22:38:43 10° N night (unlit)
04 May - 07:44:40 10° N 07:48:14 24° NE 07:52:14 10° E daylight
04 May - 09:32:01 10° WNW 09:36:30 39° SW 09:41:51 10° SSE daylight
04 May - 18:49:12 10° S 18:54:59 22° SE 19:00:21 10° E visible
04 May - 20:36:40 10° SW 20:44:21 86° NW 20:50:53 10° NE visible
04 May - 22:29:08 10° WNW 22:32:58 16° NW 22:36:28 10° N night (unlit)
